Погода в Миатлях

Россия / Республика Дагестан     43°04′57″N   46°49′42″E
темп.,
°C
ветер,
м/с
пор.,
м/с
влажн.,
%
обл.,
%
осадки,
мм/ч
давл.,
гПа
погр.,
м
5 марта, пт
пт500:00−2юз11620 0.0 102321
03:00−2ююз116024 0.0 102221
06:00−2ююз115041 0.0 102021
09:00+2всв114520 0.0 1019240
12:00+4ссв11520 0.0 1018456
15:00+6ссв21550 0.0 1017458
18:00+2ююз12690 0.0 101922
21:00+2ююз12490 0.0 102122
6 марта, сб
сб600:00+2ююз22380 0.0 102022
03:00+2юз22360 0.0 102022
06:00+2ююз23320 0.0 102023
09:00+7ююз12320 0.0 101998
12:00+11всв112813 0.0 1017391
15:00+12св11316 0.0 1014560
18:00+6ююз22477 0.0 101422
21:00+6юз333720 0.0 101324
7 марта, вс
вс700:00+6зюз3339100 0.0 101233
03:00+3зсз71254100 0.0 1014755
06:00−1сз71098100 1.3 1018566
09:00−3сз81292100 4.8 10221003
12:00−3зсз71172100 0.9 10221248
15:00−2сз5764100 1.2 10221087
18:00−4зсз2370100 0.0 1023319
21:00−5ююв017891 0.1 102468
8 марта, пн
пн800:00−5ююз127528 0.0 102436
03:00−5ю117318 0.0 102422
06:00−5юв117531 0.0 102421
09:00−2в236030 0.0 1022492
12:000в336011 0.0 1020803
15:00+1всв226534 0.0 1017738
18:00−2св018781 0.0 101881
21:00−2з238490 0.1 1019160
9 марта, вт
вт900:00−2зсз2387100 0.7 1019207
03:00−4з128199 0.7 101825
06:00−4ю117625 0.0 101821
09:00−1в227229 0.0 1017465
12:00+2всв227060 0.0 1015672
15:00+2в336974 0.1 1014658
18:00−1ююв228426 0.0 101532
21:00−1зюз127313 0.0 101722